Powrót do katalogu

BREEZE-M R/B

AktywnyHEO
NORAD 44308·ROCKET BODY·🇷🇺 Russia

Wystrzelony May 30, 2019 z Baikonur Cosmodrome

Loading…

Następne Przeloty (najbliższe 24 godziny)

TLE

ŚwieżeSource: Space-Track

Epoka: Sep 10, 2026, 19:03 UTC

1 44308U 19031B   26253.79396657 -.00000323  00000-0  00000-0 0  9992
2 44308  17.5093 169.7993 5481996 286.6250  22.1962  2.00668384 53367

Śledź BREEZE-M R/B w czasie rzeczywistym z AllMySat

Download on the App Store